Location: Casteau
(50.5142°N, 4.0161°E)
Time: 05:45:06
(UTC+00:00)

Vanguard 1 Rocket - Pass Details

Date: 05 August 2021
Orbit: 650 x 4226 km, 34.3° (Epoch: 21 September)

Event Time Altitude Azimuth Distance (km) Brightness Sun altitude
Rises 09:13:52 0° 235° (SW) 8,342 12.1 44.2°
Reaches altitude 10° 09:20:38 10° 229° (SW) 7,039 11.9 45.0°
Maximum altitude 09:39:22 38° 172° (S) 3,722 11.7 47.4°
Drops below altitude 10° 09:50:29 10° 109° (ESE) 4,258 11.6 48.7°
Sets 09:53:24 0° 101° (ESE) 4,870 11.6 49.0°
